Find Iridium Next SV157

NORAD ID: 43251 Int'l Des: 2018-030 Owner: IRIDS Country: US Constellation: Iridium NEXT operational
LEOCIRCULARPOLAR

現在のビュー

3D地球を読み込み中...

Iridium Next SV157について

説明を読み込み中...

次回通過

Passes for default location (London). Set your location on the main map for personalized predictions.

高度履歴

Loading altitude history...

軌道要素

1 43251U 18030C 26150.88360404 .00000013 00000-0 -23606-5 0 9991
2 43251 86.3944 297.6575 0002161 92.1690 267.9753 14.34217684427652
Epoch: May 30, 2026 • Age: 10 hours

現在のステータス

高度 780.9 km
速度 7.46 km/s
衛星直下点 -1.23°S, 60.11°W
打ち上げ日 Mar 30, 2018
運用期間 8.1 years
タイプ communications

技術仕様

分類 Payload
質量 860.00 kg
乾燥質量 700.00 kg
総質量 860.00 kg
長さ 3.10 m
直径 1.50 m
スパン 9.40 m
形状 Half Hex Prism+2 pan
製造者 OATKGA
バスタイプ EliteBus
フェーズステータス In Orbit
所有者/国 IRIDS/US

Most Searched